Stündliche Wetter Abashevo

Heute, 23 Juni, Mittwoch

Zeit Temperatur Niederschläge Wind Luftdruck Luftfeuchtigkeit
00:00 +26°C° 0 mm 1 m/S 762 mmHg 62%
01:00 +25°C° 0 mm 1 m/S 762 mmHg 63%
02:00 +25°C° 0 mm 1 m/S 762 mmHg 65%
03:00 +24°C° 0 mm 1 m/S 762 mmHg 67%
04:00 +25°C° 0 mm 1 m/S 762 mmHg 66%
05:00 +26°C° 0 mm 1 m/S 762 mmHg 65%
06:00 +27°C° 0 mm 1 m/S 762 mmHg 64%
07:00 +28°C° 0 mm 1 m/S 762 mmHg 61%
08:00 +30°C° 0 mm 1 m/S 762 mmHg 58%
09:00 +31°C° 0 mm 2 m/S 762 mmHg 55%
10:00 +32°C° 0 mm 2 m/S 762 mmHg 52%
11:00 +32°C° 0 mm 2 m/S 762 mmHg 49%
12:00 +34°C° 0 mm 2 m/S 761 mmHg 46%
13:00 +35°C° 0 mm 2 m/S 761 mmHg 45%
14:00 +35°C° 0 mm 2 m/S 761 mmHg 43%
15:00 +35°C° 0 mm 2 m/S 761 mmHg 41%
16:00 +31°C° 0.1 mm 3 m/S 761 mmHg 50%
17:00 +29°C° 0.1 mm 5 m/S 761 mmHg 59%
18:00 +26°C° 0.1 mm 6 m/S 761 mmHg 68%
19:00 +25°C° 0.1 mm 5 m/S 761 mmHg 69%
20:00 +24°C° 0.1 mm 3 m/S 761 mmHg 69%
21:00 +23°C° 0.1 mm 2 m/S 761 mmHg 70%
22:00 +23°C° 0 mm 2 m/S 761 mmHg 72%
23:00 +23°C° 0 mm 2 m/S 761 mmHg 74%

Morgen, 24 Juni, Donnerstag

Zeit Temperatur Niederschläge Wind Luftdruck Luftfeuchtigkeit
00:00 +23°C° 0 mm 2 m/S 761 mmHg 76%
01:00 +21°C° 0 mm 2 m/S 761 mmHg 77%
02:00 +21°C° 0 mm 2 m/S 761 mmHg 79%
03:00 +21°C° 0 mm 2 m/S 761 mmHg 80%
04:00 +23°C° 0 mm 2 m/S 761 mmHg 78%
05:00 +24°C° 0 mm 2 m/S 761 mmHg 76%
06:00 +24°C° 0 mm 2 m/S 761 mmHg 74%
07:00 +26°C° 0 mm 2 m/S 761 mmHg 70%
08:00 +27°C° 0 mm 2 m/S 761 mmHg 65%
09:00 +29°C° 0 mm 2 m/S 761 mmHg 61%
10:00 +30°C° 0 mm 2 m/S 761 mmHg 57%
11:00 +31°C° 0 mm 2 m/S 761 mmHg 53%
12:00 +32°C° 0 mm 2 m/S 761 mmHg 49%
13:00 +32°C° 0 mm 2 m/S 760 mmHg 48%
14:00 +32°C° 0 mm 2 m/S 760 mmHg 46%
15:00 +34°C° 0 mm 2 m/S 760 mmHg 45%
16:00 +32°C° 0 mm 1 m/S 760 mmHg 49%
17:00 +32°C° 0 mm 1 m/S 760 mmHg 53%
18:00 +32°C° 0 mm 1 m/S 760 mmHg 57%
19:00 +29°C° 0.5 mm 2 m/S 760 mmHg 65%
20:00 +26°C° 0.5 mm 2 m/S 760 mmHg 73%
21:00 +22°C° 0.5 mm 3 m/S 760 mmHg 81%
22:00 +23°C° 0.1 mm 2 m/S 760 mmHg 79%
23:00 +21°C° 0.1 mm 2 m/S 759 mmHg 76%

übermorgen, 25 Juni, Freitag

Zeit Temperatur Niederschläge Wind Luftdruck Luftfeuchtigkeit
00:00 +22°C° 0.1 mm 1 m/S 759 mmHg 74%
01:00 +22°C° 0 mm 1 m/S 759 mmHg 75%
02:00 +21°C° 0 mm 2 m/S 759 mmHg 76%
03:00 +20°C° 0 mm 2 m/S 759 mmHg 76%
04:00 +21°C° 0 mm 2 m/S 759 mmHg 76%
05:00 +23°C° 0 mm 1 m/S 759 mmHg 76%
06:00 +25°C° 0 mm 1 m/S 759 mmHg 76%
07:00 +26°C° 0 mm 2 m/S 759 mmHg 71%
08:00 +28°C° 0 mm 3 m/S 759 mmHg 67%
09:00 +29°C° 0 mm 4 m/S 759 mmHg 62%
10:00 +30°C° 0 mm 4 m/S 759 mmHg 57%
11:00 +31°C° 0 mm 3 m/S 759 mmHg 52%
12:00 +33°C° 0 mm 3 m/S 759 mmHg 47%
13:00 +33°C° 0 mm 3 m/S 759 mmHg 49%
14:00 +32°C° 0 mm 4 m/S 759 mmHg 51%
15:00 +32°C° 0 mm 4 m/S 759 mmHg 53%
16:00 +30°C° 0 mm 3 m/S 758 mmHg 58%
17:00 +30°C° 0 mm 2 m/S 758 mmHg 63%
18:00 +29°C° 0 mm 1 m/S 758 mmHg 68%
19:00 +28°C° 0.1 mm 1 m/S 758 mmHg 71%
20:00 +27°C° 0.1 mm 1 m/S 758 mmHg 74%
21:00 +26°C° 0.1 mm 1 m/S 757 mmHg 77%
22:00 +25°C° 0.1 mm 1 m/S 757 mmHg 79%
23:00 +25°C° 0.1 mm 1 m/S 757 mmHg 80%

26 Juni, Samstag

Zeit Temperatur Niederschläge Wind Luftdruck Luftfeuchtigkeit
00:00 +25°C° 0.1 mm 2 m/S 757 mmHg 82%
01:00 +25°C° 0.2 mm 2 m/S 757 mmHg 83%
02:00 +24°C° 0.2 mm 2 m/S 757 mmHg 84%
03:00 +24°C° 0.2 mm 2 m/S 757 mmHg 85%
04:00 +25°C° 0 mm 2 m/S 757 mmHg 84%
05:00 +25°C° 0 mm 2 m/S 757 mmHg 83%
06:00 +26°C° 0 mm 2 m/S 757 mmHg 82%
07:00 +27°C° 0 mm 3 m/S 757 mmHg 76%
08:00 +28°C° 0 mm 3 m/S 757 mmHg 70%
09:00 +29°C° 0 mm 4 m/S 757 mmHg 64%
10:00 +30°C° 0 mm 3 m/S 757 mmHg 60%
11:00 +31°C° 0 mm 3 m/S 757 mmHg 56%
12:00 +33°C° 0 mm 3 m/S 757 mmHg 51%
13:00 +34°C° 0 mm 3 m/S 757 mmHg 50%
14:00 +34°C° 0 mm 3 m/S 757 mmHg 49%
15:00 +34°C° 0 mm 3 m/S 757 mmHg 48%
16:00 +34°C° 0 mm 3 m/S 757 mmHg 53%
17:00 +32°C° 0 mm 2 m/S 756 mmHg 57%
18:00 +32°C° 0 mm 2 m/S 756 mmHg 62%
19:00 +30°C° 0 mm 2 m/S 756 mmHg 65%
20:00 +28°C° 0 mm 1 m/S 756 mmHg 69%
21:00 +27°C° 0 mm 1 m/S 756 mmHg 73%
22:00 +26°C° 0.1 mm 1 m/S 756 mmHg 75%
23:00 +26°C° 0.1 mm 1 m/S 756 mmHg 78%

27 Juni, Sonntag

Zeit Temperatur Niederschläge Wind Luftdruck Luftfeuchtigkeit
00:00 +25°C° 0.1 mm 1 m/S 756 mmHg 80%
01:00 +25°C° 0 mm 1 m/S 756 mmHg 81%
02:00 +24°C° 0 mm 1 m/S 756 mmHg 82%
03:00 +24°C° 0 mm 1 m/S 756 mmHg 83%
04:00 +25°C° 0 mm 1 m/S 757 mmHg 81%
05:00 +26°C° 0 mm 2 m/S 757 mmHg 79%
06:00 +27°C° 0 mm 2 m/S 757 mmHg 78%
07:00 +28°C° 0 mm 2 m/S 757 mmHg 73%
08:00 +29°C° 0 mm 2 m/S 757 mmHg 68%
09:00 +31°C° 0 mm 2 m/S 757 mmHg 63%
10:00 +32°C° 0 mm 2 m/S 757 mmHg 59%
11:00 +34°C° 0 mm 2 m/S 757 mmHg 55%
12:00 +34°C° 0 mm 2 m/S 757 mmHg 52%
13:00 +35°C° 0 mm 2 m/S 757 mmHg 50%
14:00 +35°C° 0 mm 3 m/S 757 mmHg 49%
15:00 +35°C° 0 mm 3 m/S 756 mmHg 48%
16:00 +34°C° 0 mm 3 m/S 756 mmHg 53%
17:00 +34°C° 0 mm 3 m/S 756 mmHg 58%
18:00 +33°C° 0 mm 3 m/S 756 mmHg 62%
19:00 +30°C° 0 mm 3 m/S 756 mmHg 66%
20:00 +28°C° 0 mm 3 m/S 756 mmHg 70%
21:00 +27°C° 0 mm 3 m/S 756 mmHg 74%
22:00 +26°C° 0 mm 2 m/S 756 mmHg 76%
23:00 +25°C° 0 mm 1 m/S 756 mmHg 78%

28 Juni, Montag

Zeit Temperatur Niederschläge Wind Luftdruck Luftfeuchtigkeit
00:00 +25°C° 0 mm 1 m/S 756 mmHg 79%
01:00 +24°C° 0 mm 1 m/S 756 mmHg 81%
02:00 +24°C° 0 mm 1 m/S 756 mmHg 83%
03:00 +24°C° 0 mm 1 m/S 756 mmHg 85%
04:00 +24°C° 0 mm 1 m/S 757 mmHg 83%
05:00 +25°C° 0 mm 1 m/S 757 mmHg 81%
06:00 +26°C° 0 mm 1 m/S 757 mmHg 79%
07:00 +27°C° 0 mm 1 m/S 757 mmHg 74%
08:00 +29°C° 0 mm 1 m/S 757 mmHg 69%
09:00 +30°C° 0 mm 1 m/S 757 mmHg 64%
10:00 +31°C° 0.1 mm 1 m/S 757 mmHg 61%
11:00 +32°C° 0.1 mm 1 m/S 757 mmHg 57%
12:00 +33°C° 0.1 mm 1 m/S 757 mmHg 54%
13:00 +33°C° 0 mm 1 m/S 756 mmHg 52%
14:00 +33°C° 0 mm 1 m/S 756 mmHg 50%
15:00 +34°C° 0 mm 2 m/S 756 mmHg 48%
16:00 +34°C° 0 mm 2 m/S 756 mmHg 52%
17:00 +32°C° 0 mm 2 m/S 755 mmHg 56%
18:00 +32°C° 0 mm 2 m/S 755 mmHg 60%
19:00 +30°C° 0 mm 2 m/S 755 mmHg 62%
20:00 +28°C° 0 mm 2 m/S 755 mmHg 64%
21:00 +27°C° 0 mm 3 m/S 755 mmHg 65%
22:00 +26°C° 0.2 mm 2 m/S 755 mmHg 68%
23:00 +25°C° 0.2 mm 2 m/S 755 mmHg 71%
Mehr zeigen

Wir brauchen deine Erlaubnis

Meteoprog und unser Service Anbieter werden persönliche Daten aufbewahren, so wie Cookies, Geräte Bezeichnung oder ähnliche Technologien von deinem Gerät und Prozess, so wie Persönliche Daten Inhalte und Werbungen, genauso wie social Media und den Verkehr zu analysieren.

  • Aufbewahrung und/oder Zugang zu deiner Geräte Informationen.

    Cookies, Geräte Bezeichnung oder andere Informationen, können aufbewahrt oder Zugang zu deinem Gerät erhalten, für den Grund, der oben angegeben wird.

  • Personalisierte Werbung und Inhalte, Messungen, Einblick in das Publikum und Produkt Entwicklung.

    Werbungen und Inhalte können personalisiert werden, basierend auf ein Profil. Mehr Daten können besser personalisierte Werbungen und Inhalte hinzufügen. Werbung und Inhalte können gezeigt und gemessen werden. Einblicke über das Publikum, welche die Werbung gesehen haben und den Inhalt, können abgeleitet werden. So wie Daten können genutzt werden, um es zu verbessern oder die Benutzer Erfahrung zu verbessern das System und die Software.

Wenn du “Ich stimme zu” klickst, erlaubst du uns, die Cookies zu benutzen die Geräte Bezeichnung, den Web oder ähnliche Technologien zu benutzen. Deine Settings, können in deinem Gerät bei deinem Browser geändert werden.

Für den bestimmten Zweck, berechtigten Interessen beruhen darauf, mehr als auf den Inhalt. Du kannst mehr darüber in unseren Privaten und Cookie Politik lesen.